Year,Month,Day,Hour,Minute,Value (Times are PST for temperature in C)
2019,07,07,00,00,13.10
2019,07,07,00,01,13.10
2019,07,07,00,02,13.10
2019,07,07,00,03,13.10
2019,07,07,00,04,13.10
2019,07,07,00,05,13.20
2019,07,07,00,06,13.20
2019,07,07,00,07,13.20
2019,07,07,00,08,13.20
2019,07,07,00,09,13.20
2019,07,07,00,10,13.20
2019,07,07,00,11,13.20
2019,07,07,00,12,13.30
2019,07,07,00,13,13.30
2019,07,07,00,14,13.30
2019,07,07,00,15,13.30
2019,07,07,00,16,13.40
2019,07,07,00,17,13.40
2019,07,07,00,18,13.40
2019,07,07,00,19,13.50
2019,07,07,00,20,13.50
2019,07,07,00,21,13.50
2019,07,07,00,22,13.50
2019,07,07,00,23,13.60
2019,07,07,00,24,13.60
2019,07,07,00,25,13.60
2019,07,07,00,26,13.60
2019,07,07,00,27,13.60
2019,07,07,00,28,13.70
2019,07,07,00,29,13.70
2019,07,07,00,30,13.70
2019,07,07,00,31,13.70
2019,07,07,00,32,13.70
2019,07,07,00,33,13.70
2019,07,07,00,34,13.70
2019,07,07,00,35,13.70
2019,07,07,00,36,13.70
2019,07,07,00,37,13.70
2019,07,07,00,38,13.70
2019,07,07,00,39,13.70
2019,07,07,00,40,13.70
2019,07,07,00,41,13.70
2019,07,07,00,42,13.70
2019,07,07,00,43,13.80
2019,07,07,00,44,13.80
2019,07,07,00,45,13.80
2019,07,07,00,46,13.80
2019,07,07,00,47,13.80
2019,07,07,00,48,13.90
2019,07,07,00,49,13.90
2019,07,07,00,50,13.90
2019,07,07,00,51,13.90
2019,07,07,00,52,14.00
2019,07,07,00,53,14.00
2019,07,07,00,54,14.00
2019,07,07,00,55,14.00
2019,07,07,00,56,14.10
2019,07,07,00,57,14.10
2019,07,07,00,58,14.10
2019,07,07,00,59,14.20
2019,07,07,01,00,14.20
2019,07,07,01,01,14.20
2019,07,07,01,02,14.30
2019,07,07,01,03,14.30
2019,07,07,01,04,14.40
2019,07,07,01,05,14.50
2019,07,07,01,06,14.50
2019,07,07,01,07,14.60
2019,07,07,01,08,14.60
2019,07,07,01,09,14.60
2019,07,07,01,10,14.70
2019,07,07,01,11,14.70
2019,07,07,01,12,14.70
2019,07,07,01,13,14.70
2019,07,07,01,14,14.80
2019,07,07,01,15,14.80
2019,07,07,01,16,14.80
2019,07,07,01,17,14.80
2019,07,07,01,18,14.70
2019,07,07,01,19,14.70
2019,07,07,01,20,14.60
2019,07,07,01,21,14.50
2019,07,07,01,22,14.50
2019,07,07,01,23,14.50
2019,07,07,01,24,14.40
2019,07,07,01,25,14.40
2019,07,07,01,26,14.40
2019,07,07,01,27,14.40
2019,07,07,01,28,14.40
2019,07,07,01,29,14.40
2019,07,07,01,30,14.50
2019,07,07,01,31,14.50
2019,07,07,01,32,14.60
2019,07,07,01,33,14.60
2019,07,07,01,34,14.60
2019,07,07,01,35,14.60
2019,07,07,01,36,14.60
2019,07,07,01,37,14.70
2019,07,07,01,38,14.70
2019,07,07,01,39,14.70
2019,07,07,01,40,14.70
2019,07,07,01,41,14.70
2019,07,07,01,42,14.80
2019,07,07,01,43,14.80
2019,07,07,01,44,14.80
2019,07,07,01,45,14.80
2019,07,07,01,46,14.80
2019,07,07,01,47,14.80
2019,07,07,01,48,14.90
2019,07,07,01,49,14.90
2019,07,07,01,50,14.90
2019,07,07,01,51,15.00
2019,07,07,01,52,15.00
2019,07,07,01,53,15.00
2019,07,07,01,54,15.00
2019,07,07,01,55,15.00
2019,07,07,01,56,15.00
2019,07,07,01,57,15.00
2019,07,07,01,58,15.00
2019,07,07,01,59,15.00
2019,07,07,02,00,15.00
2019,07,07,02,01,15.00
2019,07,07,02,02,15.00
2019,07,07,02,03,15.00
2019,07,07,02,04,15.00
2019,07,07,02,05,15.00
2019,07,07,02,06,15.00
2019,07,07,02,07,15.00
2019,07,07,02,08,14.90
2019,07,07,02,09,14.80
2019,07,07,02,10,14.70
2019,07,07,02,11,14.70
2019,07,07,02,12,14.70
2019,07,07,02,13,14.50
2019,07,07,02,14,14.40
2019,07,07,02,15,14.30
2019,07,07,02,16,14.30
2019,07,07,02,17,14.30
2019,07,07,02,18,14.30
2019,07,07,02,19,14.20
2019,07,07,02,20,14.20
2019,07,07,02,21,14.20
2019,07,07,02,22,14.20
2019,07,07,02,23,14.20
2019,07,07,02,24,14.20
2019,07,07,02,25,14.20
2019,07,07,02,26,14.20
2019,07,07,02,27,14.20
2019,07,07,02,28,14.20
2019,07,07,02,29,14.20
2019,07,07,02,30,14.20
2019,07,07,02,31,14.20
2019,07,07,02,32,14.20
2019,07,07,02,33,14.20
2019,07,07,02,34,14.20
2019,07,07,02,35,14.20
2019,07,07,02,36,14.20
2019,07,07,02,37,14.20
2019,07,07,02,38,14.20
2019,07,07,02,39,14.30
2019,07,07,02,40,14.30
2019,07,07,02,41,14.30
2019,07,07,02,42,14.30
2019,07,07,02,43,14.20
2019,07,07,02,44,14.20
2019,07,07,02,45,14.30
2019,07,07,02,46,14.30
2019,07,07,02,47,14.30
2019,07,07,02,48,14.30
2019,07,07,02,49,14.30
2019,07,07,02,50,14.30
2019,07,07,02,51,14.30
2019,07,07,02,52,14.30
2019,07,07,02,53,14.30
2019,07,07,02,54,14.30
2019,07,07,02,55,14.20
2019,07,07,02,56,14.20
2019,07,07,02,57,14.30
2019,07,07,02,58,14.30
2019,07,07,02,59,14.30
2019,07,07,03,00,14.30
2019,07,07,03,01,14.30
2019,07,07,03,02,14.30
2019,07,07,03,03,14.30
2019,07,07,03,04,14.30
2019,07,07,03,05,14.30
2019,07,07,03,06,14.30
2019,07,07,03,07,14.30
2019,07,07,03,08,14.30
2019,07,07,03,09,14.30
2019,07,07,03,10,14.30
2019,07,07,03,11,14.30
2019,07,07,03,12,14.30
2019,07,07,03,13,14.30
2019,07,07,03,14,14.20
2019,07,07,03,15,14.20
2019,07,07,03,16,14.20
2019,07,07,03,17,14.20
2019,07,07,03,18,14.20
2019,07,07,03,19,14.20
2019,07,07,03,20,14.20
2019,07,07,03,21,14.20
2019,07,07,03,22,14.20
2019,07,07,03,23,14.20
2019,07,07,03,24,14.20
2019,07,07,03,25,14.20
2019,07,07,03,26,14.20
2019,07,07,03,27,14.20
2019,07,07,03,28,14.20
2019,07,07,03,29,14.20
2019,07,07,03,30,14.20
2019,07,07,03,31,14.20
2019,07,07,03,32,14.20
2019,07,07,03,33,14.30
2019,07,07,03,34,14.30
2019,07,07,03,35,14.20
2019,07,07,03,36,14.20
2019,07,07,03,37,14.20
2019,07,07,03,38,14.20
2019,07,07,03,39,14.30
2019,07,07,03,40,14.30
2019,07,07,03,41,14.30
2019,07,07,03,42,14.30
2019,07,07,03,43,14.30
2019,07,07,03,44,14.40
2019,07,07,03,45,14.40
2019,07,07,03,46,14.40
2019,07,07,03,47,14.40
2019,07,07,03,48,14.40
2019,07,07,03,49,14.40
2019,07,07,03,50,14.40
2019,07,07,03,51,14.40
2019,07,07,03,52,14.40
2019,07,07,03,53,14.40
2019,07,07,03,54,14.40
2019,07,07,03,55,14.40
2019,07,07,03,56,14.40
2019,07,07,03,57,14.30
2019,07,07,03,58,14.30
2019,07,07,03,59,14.30
2019,07,07,04,00,14.30
2019,07,07,04,01,14.30
2019,07,07,04,02,14.30
2019,07,07,04,03,14.30
2019,07,07,04,04,14.30
2019,07,07,04,05,14.20
2019,07,07,04,06,14.20
2019,07,07,04,07,14.20
2019,07,07,04,08,14.20
2019,07,07,04,09,14.20
2019,07,07,04,10,14.20
2019,07,07,04,11,14.20
2019,07,07,04,12,14.20
2019,07,07,04,13,14.10
2019,07,07,04,14,14.10
2019,07,07,04,15,14.10
2019,07,07,04,16,14.10
2019,07,07,04,17,14.20
2019,07,07,04,18,14.20
2019,07,07,04,19,14.10
2019,07,07,04,20,14.10
2019,07,07,04,21,14.10
2019,07,07,04,22,14.10
2019,07,07,04,23,14.10
2019,07,07,04,24,14.10
2019,07,07,04,25,14.10
2019,07,07,04,26,14.10
2019,07,07,04,27,14.10
2019,07,07,04,28,14.10
2019,07,07,04,29,14.10
2019,07,07,04,30,14.10
2019,07,07,04,31,14.10
2019,07,07,04,32,14.10
2019,07,07,04,33,14.10
2019,07,07,04,34,14.10
2019,07,07,04,35,14.10
2019,07,07,04,36,14.10
2019,07,07,04,37,14.10
2019,07,07,04,38,14.10
2019,07,07,04,39,14.00
2019,07,07,04,40,14.00
2019,07,07,04,41,14.00
2019,07,07,04,42,14.00
2019,07,07,04,43,14.00
2019,07,07,04,44,14.00
2019,07,07,04,45,14.00
2019,07,07,04,46,13.90
2019,07,07,04,47,13.90
2019,07,07,04,48,13.90
2019,07,07,04,49,13.90
2019,07,07,04,50,13.90
2019,07,07,04,51,13.90
2019,07,07,04,52,13.90
2019,07,07,04,53,13.90
2019,07,07,04,54,13.90
2019,07,07,04,55,13.90
2019,07,07,04,56,13.90
2019,07,07,04,57,13.90
2019,07,07,04,58,13.80
2019,07,07,04,59,13.80
2019,07,07,05,00,13.80
2019,07,07,05,01,13.80
2019,07,07,05,02,13.80
2019,07,07,05,03,13.80
2019,07,07,05,04,13.80
2019,07,07,05,05,13.80
2019,07,07,05,06,13.80
2019,07,07,05,07,13.80
2019,07,07,05,08,13.80
2019,07,07,05,09,13.80
2019,07,07,05,10,13.80
2019,07,07,05,11,13.80
2019,07,07,05,12,13.70
2019,07,07,05,13,13.70
2019,07,07,05,14,13.70
2019,07,07,05,15,13.70
2019,07,07,05,16,13.70
2019,07,07,05,17,13.70
2019,07,07,05,18,13.70
2019,07,07,05,19,13.70
2019,07,07,05,20,13.80
2019,07,07,05,21,13.80
2019,07,07,05,22,13.80
2019,07,07,05,23,13.90
2019,07,07,05,24,13.90
2019,07,07,05,25,14.00
2019,07,07,05,26,14.10
2019,07,07,05,27,14.20
2019,07,07,05,28,14.20
2019,07,07,05,29,14.40
2019,07,07,05,30,14.50
2019,07,07,05,31,14.60
2019,07,07,05,32,14.60
2019,07,07,05,33,14.60
2019,07,07,05,34,14.60
2019,07,07,05,35,14.50
2019,07,07,05,36,14.40
2019,07,07,05,37,14.30
2019,07,07,05,38,14.30
2019,07,07,05,39,14.20
2019,07,07,05,40,14.10
2019,07,07,05,41,14.10
2019,07,07,05,42,14.00
2019,07,07,05,43,14.00
2019,07,07,05,44,14.00
2019,07,07,05,45,14.00
2019,07,07,05,46,13.90
2019,07,07,05,47,13.90
2019,07,07,05,48,13.90
2019,07,07,05,49,14.00
2019,07,07,05,50,14.00
2019,07,07,05,51,14.00
2019,07,07,05,52,14.10
2019,07,07,05,53,14.20
2019,07,07,05,54,14.30
2019,07,07,05,55,14.40
2019,07,07,05,56,14.60
2019,07,07,05,57,14.70
2019,07,07,05,58,14.80
2019,07,07,05,59,14.80
2019,07,07,06,00,14.80
2019,07,07,06,01,14.80
2019,07,07,06,02,14.80
2019,07,07,06,03,14.80
2019,07,07,06,04,14.80
2019,07,07,06,05,14.70
2019,07,07,06,06,14.70
2019,07,07,06,07,14.80
2019,07,07,06,08,14.80
2019,07,07,06,09,14.80
2019,07,07,06,10,14.70
2019,07,07,06,11,14.70
2019,07,07,06,12,14.70
2019,07,07,06,13,14.70
2019,07,07,06,14,14.60
2019,07,07,06,15,14.60
2019,07,07,06,16,14.60
2019,07,07,06,17,14.60
2019,07,07,06,18,14.60
2019,07,07,06,19,14.60
2019,07,07,06,20,14.60
2019,07,07,06,21,14.60
2019,07,07,06,22,14.50
2019,07,07,06,23,14.50
2019,07,07,06,24,14.50
2019,07,07,06,25,14.50
2019,07,07,06,26,14.50
2019,07,07,06,27,14.60
2019,07,07,06,28,14.60
2019,07,07,06,29,14.60
2019,07,07,06,30,14.60
2019,07,07,06,31,14.60
2019,07,07,06,32,14.60
2019,07,07,06,33,14.60
2019,07,07,06,34,14.60
2019,07,07,06,35,14.60
2019,07,07,06,36,14.70
2019,07,07,06,37,14.70
2019,07,07,06,38,14.80
2019,07,07,06,39,14.80
2019,07,07,06,40,14.80
2019,07,07,06,41,14.80
2019,07,07,06,42,14.80
2019,07,07,06,43,14.80
2019,07,07,06,44,14.80
2019,07,07,06,45,14.80
2019,07,07,06,46,14.90
2019,07,07,06,47,14.90
2019,07,07,06,48,14.80
2019,07,07,06,49,14.80
2019,07,07,06,50,14.80
2019,07,07,06,51,14.80
2019,07,07,06,52,14.90
2019,07,07,06,53,14.90
2019,07,07,06,54,14.90
2019,07,07,06,55,15.00
2019,07,07,06,56,15.00
2019,07,07,06,57,15.00
2019,07,07,06,58,15.00
2019,07,07,06,59,15.00
2019,07,07,07,00,15.00
2019,07,07,07,01,15.00
2019,07,07,07,02,15.00
2019,07,07,07,03,15.00
2019,07,07,07,04,15.00
2019,07,07,07,05,15.00
2019,07,07,07,06,15.00
2019,07,07,07,07,15.00
2019,07,07,07,08,15.00
2019,07,07,07,09,15.10
2019,07,07,07,10,15.20
2019,07,07,07,11,15.20
2019,07,07,07,12,15.20
2019,07,07,07,13,15.30
2019,07,07,07,14,15.30
2019,07,07,07,15,15.30
2019,07,07,07,16,15.30
2019,07,07,07,17,15.30
2019,07,07,07,18,15.30
2019,07,07,07,19,15.30
2019,07,07,07,20,15.30
2019,07,07,07,21,15.30
2019,07,07,07,22,15.30
2019,07,07,07,23,15.30
2019,07,07,07,24,15.30
2019,07,07,07,25,15.30
2019,07,07,07,26,15.40
2019,07,07,07,27,15.40
2019,07,07,07,28,15.40
2019,07,07,07,29,15.40
2019,07,07,07,30,15.50
2019,07,07,07,31,15.50
2019,07,07,07,32,15.60
2019,07,07,07,33,15.50
2019,07,07,07,34,15.50
2019,07,07,07,35,15.50
2019,07,07,07,36,15.50
2019,07,07,07,37,15.50
2019,07,07,07,38,15.50
2019,07,07,07,39,15.60
2019,07,07,07,40,15.60
2019,07,07,07,41,15.60
2019,07,07,07,42,15.60
2019,07,07,07,43,15.60
2019,07,07,07,44,15.60
2019,07,07,07,45,15.60
2019,07,07,07,46,15.60
2019,07,07,07,47,15.60
2019,07,07,07,48,15.70
2019,07,07,07,49,15.70
2019,07,07,07,50,15.70
2019,07,07,07,51,15.70
2019,07,07,07,52,15.70
2019,07,07,07,53,15.70
2019,07,07,07,54,15.80
2019,07,07,07,55,15.80
2019,07,07,07,56,15.80
2019,07,07,07,57,15.80
2019,07,07,07,58,15.80
2019,07,07,07,59,15.80
2019,07,07,08,00,15.80
2019,07,07,08,01,15.80
2019,07,07,08,02,15.80
2019,07,07,08,03,15.80
2019,07,07,08,04,15.80
2019,07,07,08,05,15.80
2019,07,07,08,06,15.80
2019,07,07,08,07,15.70
2019,07,07,08,08,15.70
2019,07,07,08,09,15.70
2019,07,07,08,10,15.70
2019,07,07,08,11,15.70
2019,07,07,08,12,15.70
2019,07,07,08,13,15.70
2019,07,07,08,14,15.70
2019,07,07,08,15,15.70
2019,07,07,08,16,15.70
2019,07,07,08,17,15.70
2019,07,07,08,18,15.70
2019,07,07,08,19,15.70
2019,07,07,08,20,15.70
2019,07,07,08,21,15.70
2019,07,07,08,22,15.70
2019,07,07,08,23,15.60
2019,07,07,08,24,15.60
2019,07,07,08,25,15.60
2019,07,07,08,26,15.60
2019,07,07,08,27,15.60
2019,07,07,08,28,15.70
2019,07,07,08,29,15.70
2019,07,07,08,30,15.60
2019,07,07,08,31,15.60
2019,07,07,08,32,15.60
2019,07,07,08,33,15.60
2019,07,07,08,34,15.60
2019,07,07,08,35,15.60
2019,07,07,08,36,15.60
2019,07,07,08,37,15.60
2019,07,07,08,38,15.60
2019,07,07,08,39,15.50
2019,07,07,08,40,15.50
2019,07,07,08,41,15.50
2019,07,07,08,42,15.50
2019,07,07,08,43,15.50
2019,07,07,08,44,15.50
2019,07,07,08,45,15.50
2019,07,07,08,46,15.40
2019,07,07,08,47,15.40
2019,07,07,08,48,15.40
2019,07,07,08,49,15.40
2019,07,07,08,50,15.40
2019,07,07,08,51,15.40
2019,07,07,08,52,15.30
2019,07,07,08,53,15.30
2019,07,07,08,54,15.30
2019,07,07,08,55,15.30
2019,07,07,08,56,15.30
2019,07,07,08,57,15.30
2019,07,07,08,58,15.30
2019,07,07,08,59,15.30
2019,07,07,09,00,15.30
2019,07,07,09,01,15.30
2019,07,07,09,02,15.30
2019,07,07,09,03,15.30
2019,07,07,09,04,15.30
2019,07,07,09,05,15.30
2019,07,07,09,06,15.30
2019,07,07,09,07,15.30
2019,07,07,09,08,15.30
2019,07,07,09,09,15.20
2019,07,07,09,10,15.20
2019,07,07,09,11,15.20
2019,07,07,09,12,15.20
2019,07,07,09,13,15.20
2019,07,07,09,14,15.20
2019,07,07,09,15,15.30
2019,07,07,09,16,15.20
2019,07,07,09,17,15.20
2019,07,07,09,18,15.20
2019,07,07,09,19,15.20
2019,07,07,09,20,15.20
2019,07,07,09,21,15.20
2019,07,07,09,22,15.20
2019,07,07,09,23,15.20
2019,07,07,09,24,15.20
2019,07,07,09,25,15.20
2019,07,07,09,26,15.20
2019,07,07,09,27,15.20
2019,07,07,09,28,15.20
2019,07,07,12,00,15.00
2019,07,07,12,01,15.00
2019,07,07,12,02,15.10
2019,07,07,12,03,15.20
2019,07,07,12,04,15.20
2019,07,07,12,05,15.10
2019,07,07,12,06,15.00
2019,07,07,12,07,15.10
2019,07,07,12,08,15.20
2019,07,07,12,09,15.30
2019,07,07,12,10,15.30
2019,07,07,12,11,15.20
2019,07,07,12,12,15.20
2019,07,07,12,13,15.20
2019,07,07,12,14,15.20
2019,07,07,12,15,15.20
2019,07,07,12,16,15.20
2019,07,07,12,17,15.30
2019,07,07,12,18,15.30
2019,07,07,12,19,15.30
2019,07,07,12,20,15.30
2019,07,07,12,21,15.20
2019,07,07,12,22,15.20
2019,07,07,12,23,15.30
2019,07,07,12,24,15.40
2019,07,07,12,25,15.30
2019,07,07,12,26,15.30
2019,07,07,12,27,15.30
2019,07,07,12,28,15.20
2019,07,07,12,29,15.10
2019,07,07,12,30,15.10
2019,07,07,12,31,15.10
2019,07,07,12,32,15.10
2019,07,07,12,33,15.20
2019,07,07,12,34,15.20
2019,07,07,12,35,15.30
2019,07,07,12,36,15.20
2019,07,07,12,37,15.20
2019,07,07,12,38,15.20
2019,07,07,12,39,15.30
2019,07,07,12,40,15.30
2019,07,07,12,41,15.30
2019,07,07,12,42,15.30
2019,07,07,12,43,15.30
2019,07,07,12,44,15.30
2019,07,07,12,45,15.20
2019,07,07,12,46,15.20
2019,07,07,12,47,15.20
2019,07,07,12,48,15.20
2019,07,07,12,49,15.30
2019,07,07,12,50,15.30
2019,07,07,12,51,15.30
2019,07,07,12,52,15.30
2019,07,07,12,53,15.40
2019,07,07,12,54,15.40
2019,07,07,12,55,15.50
2019,07,07,12,56,15.60
2019,07,07,12,57,15.50
2019,07,07,12,58,15.50
2019,07,07,12,59,15.50
2019,07,07,13,00,15.60
2019,07,07,13,01,15.70
2019,07,07,13,02,15.70
2019,07,07,13,03,15.70
2019,07,07,13,04,15.80
2019,07,07,13,05,15.70
2019,07,07,13,06,15.70
2019,07,07,13,07,15.70
2019,07,07,13,08,15.80
2019,07,07,13,09,15.70
2019,07,07,13,10,15.70
2019,07,07,13,11,15.70
2019,07,07,13,12,15.70
2019,07,07,13,13,15.70
2019,07,07,13,14,15.70
2019,07,07,13,15,15.70
2019,07,07,13,16,15.70
2019,07,07,13,17,15.70
2019,07,07,13,18,15.70
2019,07,07,13,19,15.70
2019,07,07,13,20,15.70
2019,07,07,13,21,15.70
2019,07,07,13,22,15.80
2019,07,07,13,23,15.80
2019,07,07,13,24,15.80
2019,07,07,13,25,15.80
2019,07,07,13,26,15.80
2019,07,07,13,27,15.80
2019,07,07,13,28,15.90
2019,07,07,13,29,16.00
2019,07,07,13,30,16.00
2019,07,07,13,31,16.10
2019,07,07,13,32,16.10
2019,07,07,13,33,16.00
2019,07,07,13,34,16.00
2019,07,07,13,35,16.00
2019,07,07,13,36,16.10
2019,07,07,13,37,16.10
2019,07,07,13,38,16.10
2019,07,07,13,39,16.20
2019,07,07,13,40,16.20
2019,07,07,13,41,16.20
2019,07,07,13,42,16.20
2019,07,07,13,43,16.20
2019,07,07,13,44,16.30
2019,07,07,13,45,16.30
2019,07,07,13,46,16.30
2019,07,07,13,47,16.30
2019,07,07,13,48,16.30
2019,07,07,13,49,16.30
2019,07,07,13,50,16.30
2019,07,07,13,51,16.30
2019,07,07,13,52,16.30
2019,07,07,13,53,16.30
2019,07,07,13,54,16.30
2019,07,07,13,55,16.30
2019,07,07,13,56,16.20
2019,07,07,13,57,16.20
2019,07,07,13,58,16.20
2019,07,07,13,59,16.20
2019,07,07,14,00,16.20
2019,07,07,14,01,16.20
2019,07,07,14,02,16.20
2019,07,07,14,03,16.20
2019,07,07,14,04,16.20
2019,07,07,14,05,16.20
2019,07,07,14,06,16.20
2019,07,07,14,07,16.20
2019,07,07,14,08,16.20
2019,07,07,14,09,16.20
2019,07,07,14,10,16.20
2019,07,07,14,11,16.20
2019,07,07,14,12,16.10
2019,07,07,14,13,16.10
2019,07,07,14,14,16.10
2019,07,07,14,15,16.00
2019,07,07,14,16,16.00
2019,07,07,14,17,16.10
2019,07,07,14,18,16.10
2019,07,07,14,19,16.10
2019,07,07,14,20,16.10
2019,07,07,14,21,16.00
2019,07,07,14,22,16.00
2019,07,07,14,23,15.90
2019,07,07,14,24,15.90
2019,07,07,14,25,15.90
2019,07,07,14,26,15.90
2019,07,07,14,27,15.80
2019,07,07,14,28,15.90
2019,07,07,14,29,15.90
2019,07,07,14,30,15.90
2019,07,07,14,31,15.90
2019,07,07,14,32,15.90
2019,07,07,14,33,15.90
2019,07,07,14,34,15.90
2019,07,07,14,35,15.90
2019,07,07,14,36,15.90
2019,07,07,14,37,15.90
2019,07,07,14,38,16.00
2019,07,07,14,39,16.00
2019,07,07,14,40,16.10
2019,07,07,14,41,16.10
2019,07,07,14,42,16.10
2019,07,07,14,43,16.10
2019,07,07,14,44,16.20
2019,07,07,14,45,16.20
2019,07,07,14,46,16.20
2019,07,07,14,47,16.20
2019,07,07,14,48,16.20
2019,07,07,14,49,16.20
2019,07,07,14,50,16.20
2019,07,07,14,51,16.20
2019,07,07,14,52,16.20
2019,07,07,14,53,16.20
2019,07,07,14,54,16.20
2019,07,07,14,55,16.20
2019,07,07,14,56,16.20
2019,07,07,14,57,16.20
2019,07,07,14,58,16.20
2019,07,07,14,59,16.30
2019,07,07,15,00,16.30
2019,07,07,15,01,16.30
2019,07,07,15,02,16.30
2019,07,07,15,03,16.30
2019,07,07,15,04,16.40
2019,07,07,15,05,16.30
2019,07,07,15,06,16.30
2019,07,07,15,07,16.30
2019,07,07,15,08,16.30
2019,07,07,15,09,16.30
2019,07,07,15,10,16.30
2019,07,07,15,11,16.20
2019,07,07,15,12,16.10
2019,07,07,15,13,16.00
2019,07,07,15,14,16.00
2019,07,07,15,15,16.00
2019,07,07,15,16,16.00
2019,07,07,15,17,16.10
2019,07,07,15,18,16.20
2019,07,07,15,19,16.20
2019,07,07,15,20,16.20
2019,07,07,15,21,16.20
2019,07,07,15,22,16.20
2019,07,07,15,23,16.30
2019,07,07,15,24,16.30
2019,07,07,15,25,16.30
2019,07,07,15,26,16.40
2019,07,07,15,27,16.40
2019,07,07,15,28,16.40
2019,07,07,15,29,16.50
2019,07,07,15,30,16.50
2019,07,07,15,31,16.50
2019,07,07,15,32,16.50
2019,07,07,15,33,16.50
2019,07,07,15,34,16.50
2019,07,07,15,35,16.40
2019,07,07,15,36,16.40
2019,07,07,15,37,16.50
2019,07,07,15,38,16.60
2019,07,07,15,39,16.60
2019,07,07,15,40,16.60
2019,07,07,15,41,16.60
2019,07,07,15,42,16.70
2019,07,07,15,43,16.70
2019,07,07,15,44,16.70
2019,07,07,15,45,16.80
2019,07,07,15,46,16.80
2019,07,07,15,47,16.80
2019,07,07,15,48,16.80
2019,07,07,15,49,16.80
2019,07,07,15,50,16.80
2019,07,07,15,51,16.80
2019,07,07,15,52,16.70
2019,07,07,15,53,16.70
2019,07,07,15,54,16.60
2019,07,07,15,55,16.60
2019,07,07,15,56,16.60
2019,07,07,15,57,16.60
2019,07,07,15,58,16.60
2019,07,07,15,59,16.60
2019,07,07,16,00,16.50
2019,07,07,16,01,16.50
2019,07,07,16,02,16.40
2019,07,07,16,03,16.40
2019,07,07,16,04,16.40
2019,07,07,16,05,16.40
2019,07,07,16,06,16.40
2019,07,07,16,07,16.40
2019,07,07,16,08,16.40
2019,07,07,16,09,16.40
2019,07,07,16,10,16.40
2019,07,07,16,11,16.40
2019,07,07,16,12,16.40
2019,07,07,16,13,16.40
2019,07,07,16,14,16.30
2019,07,07,16,15,16.30
2019,07,07,16,16,16.30
2019,07,07,16,17,16.40
2019,07,07,16,18,16.40
2019,07,07,16,19,16.40
2019,07,07,16,20,16.40
2019,07,07,16,21,16.40
2019,07,07,16,22,16.40
2019,07,07,16,23,16.50
2019,07,07,16,24,16.40
2019,07,07,16,25,16.50
2019,07,07,16,26,16.50
2019,07,07,16,27,16.60
2019,07,07,16,28,16.70
2019,07,07,16,29,16.60
2019,07,07,16,30,16.60
2019,07,07,16,31,16.60
2019,07,07,16,32,16.70
2019,07,07,16,33,16.70
2019,07,07,16,34,16.70
2019,07,07,16,35,16.70
2019,07,07,16,36,16.70
2019,07,07,16,37,16.70
2019,07,07,16,38,16.70
2019,07,07,16,39,16.60
2019,07,07,16,40,16.60
2019,07,07,16,41,16.60
2019,07,07,16,42,16.60
2019,07,07,16,43,16.60
2019,07,07,16,44,16.70
2019,07,07,16,45,16.70
2019,07,07,16,46,16.70
2019,07,07,16,47,16.70
2019,07,07,16,48,16.70
2019,07,07,16,49,16.70
2019,07,07,16,50,16.80
2019,07,07,16,51,16.80
2019,07,07,16,52,16.80
2019,07,07,16,53,16.80
2019,07,07,16,54,16.80
2019,07,07,16,55,16.80
2019,07,07,16,56,16.80
2019,07,07,16,57,16.70
2019,07,07,16,58,16.70
2019,07,07,16,59,16.80
2019,07,07,17,00,16.80
2019,07,07,17,01,16.80
2019,07,07,17,02,16.80
2019,07,07,17,03,16.80
2019,07,07,17,04,16.80
2019,07,07,17,05,16.80
2019,07,07,17,06,16.90
2019,07,07,17,07,16.90
2019,07,07,17,08,16.90
2019,07,07,17,09,17.00
2019,07,07,17,10,16.90
2019,07,07,17,11,16.90
2019,07,07,17,12,17.00
2019,07,07,17,13,16.90
2019,07,07,17,14,16.90
2019,07,07,17,15,17.00
2019,07,07,17,16,17.00
2019,07,07,17,17,17.10
2019,07,07,17,18,17.20
2019,07,07,17,19,17.20
2019,07,07,17,20,17.10
2019,07,07,17,21,17.10
2019,07,07,17,22,17.10
2019,07,07,17,23,17.10
2019,07,07,17,24,17.10
2019,07,07,17,25,17.10
2019,07,07,17,26,17.10
2019,07,07,17,27,17.20
2019,07,07,17,28,17.20
2019,07,07,17,29,17.20
2019,07,07,17,30,17.30
2019,07,07,17,31,17.30
2019,07,07,17,32,17.30
2019,07,07,17,33,17.30
2019,07,07,17,34,17.30
2019,07,07,17,35,17.30
2019,07,07,17,36,17.30
2019,07,07,17,37,17.30
2019,07,07,17,38,17.30
2019,07,07,17,39,17.30
2019,07,07,17,40,17.20
2019,07,07,17,41,17.20
2019,07,07,17,42,17.10
2019,07,07,17,43,17.10
2019,07,07,17,44,17.10
2019,07,07,17,45,17.10
2019,07,07,17,46,17.10
2019,07,07,17,47,17.10
2019,07,07,17,48,17.10
2019,07,07,17,49,17.20
2019,07,07,17,50,17.20
2019,07,07,17,51,17.20
2019,07,07,17,52,17.20
2019,07,07,17,53,17.20
2019,07,07,17,54,17.20
2019,07,07,17,55,17.20
2019,07,07,17,56,17.20
2019,07,07,17,57,17.20
2019,07,07,17,58,17.20
2019,07,07,17,59,17.20
2019,07,07,18,00,17.20
2019,07,07,18,01,17.20
2019,07,07,18,02,17.20
2019,07,07,18,03,17.30
2019,07,07,18,04,17.20
2019,07,07,18,05,17.20
2019,07,07,18,06,17.30
2019,07,07,18,07,17.30
2019,07,07,18,08,17.30
2019,07,07,18,09,17.30
2019,07,07,18,10,17.30
2019,07,07,18,11,17.30
2019,07,07,18,12,17.40
2019,07,07,18,13,17.30
2019,07,07,18,14,17.40
2019,07,07,18,15,17.50
2019,07,07,18,16,17.50
2019,07,07,18,17,17.60
2019,07,07,18,18,17.60
2019,07,07,18,19,17.60
2019,07,07,18,20,17.70
2019,07,07,18,21,17.70
2019,07,07,18,22,17.60
2019,07,07,18,23,17.60
2019,07,07,18,24,17.70
2019,07,07,18,25,17.70
2019,07,07,18,26,17.70
2019,07,07,18,27,17.80
2019,07,07,18,28,17.80
2019,07,07,18,29,17.90
2019,07,07,18,30,17.90
2019,07,07,18,31,17.90
2019,07,07,18,32,17.90
2019,07,07,18,33,17.90
2019,07,07,18,34,17.90
2019,07,07,18,35,17.90
2019,07,07,18,36,17.90
2019,07,07,18,37,17.90
2019,07,07,18,38,17.90
2019,07,07,18,39,17.90
2019,07,07,18,40,17.80
2019,07,07,18,41,17.70
2019,07,07,18,42,17.60
2019,07,07,18,43,17.60
2019,07,07,18,44,17.50
2019,07,07,18,45,17.50
2019,07,07,18,46,17.50
2019,07,07,18,47,17.50
2019,07,07,18,48,17.50
2019,07,07,18,49,17.50
2019,07,07,18,50,17.50
2019,07,07,18,51,17.50
2019,07,07,18,52,17.40
2019,07,07,18,53,17.40
2019,07,07,18,54,17.40
2019,07,07,18,55,17.40
2019,07,07,18,56,17.40
2019,07,07,18,57,17.40
2019,07,07,18,58,17.30
2019,07,07,18,59,17.30
2019,07,07,19,00,17.30
2019,07,07,19,01,17.20
2019,07,07,19,02,17.10
2019,07,07,19,03,17.10
2019,07,07,19,04,17.10
2019,07,07,19,05,17.00
2019,07,07,19,06,17.00
2019,07,07,19,07,16.90
2019,07,07,19,08,16.90
2019,07,07,19,09,16.90
2019,07,07,19,10,16.90
2019,07,07,19,11,16.90
2019,07,07,19,12,16.90
2019,07,07,19,13,16.90
2019,07,07,19,14,16.90
2019,07,07,19,15,16.90
2019,07,07,19,16,16.80
2019,07,07,19,17,16.80
2019,07,07,19,18,16.80
2019,07,07,19,19,16.80
2019,07,07,19,20,16.80
2019,07,07,19,21,16.80
2019,07,07,19,22,16.80
2019,07,07,19,23,16.80
2019,07,07,19,24,16.80
2019,07,07,19,25,16.80
2019,07,07,19,26,16.80
2019,07,07,19,27,16.80
2019,07,07,19,28,16.80
2019,07,07,19,29,16.80
2019,07,07,19,30,16.80
2019,07,07,19,31,16.80
2019,07,07,19,32,16.80
2019,07,07,19,33,16.80
2019,07,07,19,34,16.80
2019,07,07,19,35,16.80
2019,07,07,19,36,16.90
2019,07,07,19,37,16.90
2019,07,07,19,38,16.80
2019,07,07,19,39,16.80
2019,07,07,19,40,16.80
2019,07,07,19,41,16.70
2019,07,07,19,42,16.70
2019,07,07,19,43,16.60
2019,07,07,19,44,16.60
2019,07,07,19,45,16.60
2019,07,07,19,46,16.60
2019,07,07,19,47,16.60
2019,07,07,19,48,16.60
2019,07,07,19,49,16.60
2019,07,07,19,50,16.60